This demonstration page uses our WeatherBlox Daily Observations layout. Learn more.

39.51506, -84.39828

Hourly Observations for July 2, 2020

Temp ( °F °C ) Dew Point ( °F °C ) Humidity (%) Winds ( mph kmh ) Pressure ( in mb ) Visibility ( mi km ) Precip ( " mm )
12:15 am 00:15 Clear 70 21.2 66 19.1 88 88 Calm 29.93 1014 10 16.0934 0 0
12:35 am 00:35 Clear 70 21 66 19 88 88 Calm 29.93 1014 10 16.0934 0 0
12:55 am 00:55 Clear 70 20.9 65 18.4 86 86 Calm 29.94 1014 10 16.0934 0 0
1:15 am 01:15 Clear 70 21 65 18.3 85 85 NNE 3 6 29.94 1014 10 16.0934 0 0
1:35 am 01:35 Clear 69 20.8 65 18.2 85 85 Calm 29.94 1014 10 16.0934 0 0
1:55 am 01:55 Clear 69 20.4 65 18.4 88 88 Calm 29.94 1014 10 16.0934 0 0
2:15 am 02:15 Clear 68 20 65 18.5 91 91 Calm 29.94 1014 10 16.0934 0 0
2:35 am 02:35 Clear 66 19.1 64 17.8 92 92 Calm 29.96 1014 10 16.0934 0 0
2:55 am 02:55 Clear 67 19.4 65 18.1 92 92 Calm 29.96 1014 10 16.0934 0 0
3:15 am 03:15 Clear 67 19.2 64 18 93 93 Calm 29.96 1014 10 16.0934 0 0
3:35 am 03:35 Clear 66 19.1 64 17.8 92 92 NE 3 6 29.96 1014 10 16.0934 0 0
3:55 am 03:55 Clear 66 19.1 64 17.8 92 92 NNE 3 6 29.96 1014 10 16.0934 0 0
4:15 am 04:15 Clear 67 19.2 64 18 93 93 Calm 29.97 1015 10 16.0934 0 0
4:35 am 04:35 Clear 66 19 64 17.7 92 92 NNE 3 6 29.97 1015 10 16.0934 0 0
4:55 am 04:55 Clear 66 18.9 64 17.7 93 93 Calm 29.98 1015 10 16.0934 0 0
5:15 am 05:15 Clear 65 18.4 64 17.8 96 96 Calm 29.98 1015 10 16.0934 0 0
5:35 am 05:35 Clear 64 17.9 63 17.4 97 97 Calm 29.99 1016 10 16.0934 0 0
5:55 am 05:55 Clear 64 18 63 17 94 94 Calm 29.99 1016 10 16.0934 0 0
6:15 am 06:15 Sunny 64 17.9 64 17.6 98 98 Calm 30 1016 10 16.0934 0 0
6:35 am 06:35 Sunny 65 18.1 64 17.7 98 98 Calm 30 1016 10 16.0934 0 0
6:55 am 06:55 Sunny 65 18.4 64 17.9 97 97 Calm 30 1016 10 16.0934 0 0
7:15 am 07:15 Sunny 67 19.2 64 17.8 92 92 Calm 30.01 1016 10 16.0934 0 0
7:35 am 07:35 Sunny 68 20.1 65 18.5 91 91 Calm 30 1016 10 16.0934 0 0
7:55 am 07:55 Sunny 70 21.2 65 18.4 84 84 Calm 30 1016 10 16.0934 0 0
8:15 am 08:15 Sunny 72 22 65 18.5 81 81 NNE 3 6 30 1016 10 16.0934 0 0
8:35 am 08:35 Sunny 73 22.7 65 18.5 77 77 NE 5 7 30 1016 10 16.0934 0 0
8:55 am 08:55 Sunny 74 23.3 66 18.7 75 75 Calm 30.01 1016 10 16.0934 0 0
9:15 am 09:15 Sunny 75 24 66 19.1 74 74 Calm 30.01 1016 10 16.0934 0 0
9:35 am 09:35 Sunny 76 24.5 66 19 72 72 Calm 30.01 1016 10 16.0934 0 0
9:55 am 09:55 Sunny 77 25.2 67 19.2 69 69 Calm 30.01 1016 10 16.0934 0 0
10:15 am 10:15 Sunny 79 26 67 19.4 67 67 Calm 30 1016 10 16.0934 0 0
10:35 am 10:35 Sunny 80 26.8 67 19.6 65 65 Calm 30.01 1016 10 16.0934 0 0
10:55 am 10:55 Sunny 82 27.5 69 20.5 66 66 Calm 30.01 1016 10 16.0934 0 0
11:15 am 11:15 Sunny 83 28.1 68 19.8 61 61 Calm 30 1016 10 16.0934 0 0
11:35 am 11:35 Partly Cloudy 84 28.7 67 19.7 58 58 ENE 3 6 29.99 1016 10 16.0934 0 0
11:55 am 11:55 Sunny 82 28 66 19 58 58 NNE 8 13 30 1016 10 16.0934 0 0
12:15 pm 12:15 Sunny 85 29.2 68 20.2 58 58 N 8 13 29.99 1016 10 16.0934 0 0
12:35 pm 12:35 Sunny 84 28.9 66 18.8 54 54 NE 9 15 29.99 1016 10 16.0934 0 0
12:55 pm 12:55 Sunny 84 29 64 18 51 51 Calm 29.99 1016 10 16.0934 0 0
1:15 pm 13:15 Sunny 86 30 64 18 49 49 ENE 9 15 29.99 1016 10 16.0934 0 0
1:35 pm 13:35 Partly Cloudy 87 30.4 65 18.3 48 48 E 5 7 29.99 1016 10 16.0934 0 0
1:55 pm 13:55 Partly Cloudy 87 30.4 65 18.3 48 48 NE 8 13 29.98 1015 10 16.0934 0 0
2:15 pm 14:15 Sunny 86 30 64 18 49 49 ENE 12 19 29.98 1015 10 16.0934 0 0
2:35 pm 14:35 Sunny N/A N/A N/A ENE 10 17 N/A 10 16.0934 0 0
2:55 pm 14:55 Sunny N/A N/A N/A NNE 10 17 N/A 10 16.0934 0 0
3:15 pm 15:15 Sunny 88 31 63 17 43 43 ENE 7 11 29.97 1015 10 16.0934 0 0
3:35 pm 15:35 Sunny 88 31 61 16 40 40 ENE 7 11 29.97 1015 10 16.0934 0 0
3:55 pm 15:55 Sunny N/A N/A N/A ENE 5 7 N/A 10 16.0934 0 0
4:15 pm 16:15 Sunny 88 31 63 17 43 43 NE 3 6 29.96 1015 10 16.0934 0 0
4:35 pm 16:35 Sunny 89 31.4 61 16.3 40 40 NE 3 6 29.96 1015 10 16.0934 0 0
4:55 pm 16:55 Partly Cloudy N/A N/A N/A NE 8 13 N/A 10 16.0934 0 0
5:15 pm 17:15 Sunny 89 31.4 61 16.3 40 40 ESE 7 11 29.96 1015 10 16.0934 0 0
5:35 pm 17:35 Hazy 89 31.5 61 15.9 39 39 E 6 9 29.96 1015 5 8.0467 0 0
5:55 pm 17:55 Sunny 88 31.1 61 16 40 40 Calm 29.96 1015 10 16.0934 0 0
6:15 pm 18:15 Sunny 89 31.4 59 15.2 37 37 E 3 6 29.95 1014 10 16.0934 0 0
6:35 pm 18:35 Sunny 88 31.1 60 15.4 39 39 E 3 6 29.95 1014 10 16.0934 0 0
6:55 pm 18:55 Sunny 88 31.2 59 15.1 38 38 SE 3 6 29.95 1014 10 16.0934 0 0
7:15 pm 19:15 Sunny 87 30.8 62 16.6 42 42 E 3 6 29.95 1014 10 16.0934 0 0
7:35 pm 19:35 Sunny 87 30.6 61 16.2 42 42 ESE 6 9 29.95 1014 10 16.0934 0 0
7:55 pm 19:55 Sunny 86 30 60 15.8 42 42 E 5 7 29.95 1014 10 16.0934 0 0
8:15 pm 20:15 Sunny 86 29.8 60 15.5 42 42 SE 5 7 29.95 1014 10 16.0934 0 0
8:35 pm 20:35 Sunny 84 29 61 15.9 45 45 Calm 29.95 1014 10 16.0934 0 0
8:55 pm 20:55 Sunny 76 24.4 71 21.4 83 83 Calm 29.96 1015 10 16.0934 0 0
9:15 pm 21:15 Clear 75 23.7 68 20.2 81 81 Calm 29.97 1015 10 16.0934 0 0
9:35 pm 21:35 Clear 73 22.6 67 19.6 83 83 Calm 29.97 1015 10 16.0934 0 0
9:55 pm 21:55 Clear 72 22.3 67 19.4 84 84 Calm 29.97 1015 10 16.0934 0 0
10:15 pm 22:15 Clear 71 21.6 66 19.1 86 86 Calm 29.98 1015 10 16.0934 0 0
10:35 pm 22:35 Clear 71 21.6 66 19 85 85 Calm 29.98 1015 10 16.0934 0 0
10:55 pm 22:55 Clear 71 21.5 66 19 86 86 Calm 29.98 1015 10 16.0934 0 0
11:15 pm 23:15 Clear 69 20.6 66 18.7 89 89 Calm 29.99 1016 10 16.0934 0 0
11:35 pm 23:35 Clear 68 20.2 65 18.5 90 90 Calm 30 1016 10 16.0934 0 0
11:55 pm 23:55 Clear 67 19.7 65 18.4 92 92 N 3 6 30.01 1016 10 16.0934 0 0

Powered by AerisWeather